Location: Doverdale
(52.2833°N, 2.2000°W)
Time: 02:14:36
(UTC+00:00)

Cosmos 1980 Rocket - Pass Details

Date: 09 March 2021
Orbit: 828 x 851 km, 71.0° (Epoch: 15 April)

Event Time Altitude Azimuth Distance (km) Brightness Sun altitude
Rises 20:52:16 0° 306° (NW) 3,423 6.7 -25.8°
Reaches altitude 10° 20:56:46 10° 339° (NNW) 2,490 5.3 -26.4°
Maximum altitude 20:58:38 12° 358° (N) 2,383 4.9 -26.6°
Drops below altitude 10° 21:00:31 10° 18° (NNE) 2,491 4.8 -26.9°
Enters shadow 21:03:13 - 40° (NE) 2,968 5.0 -27.2°
